Zurück zum Katalog

STARLINK-37483

AktivKommunikationSSO
NORAD 68856·PAYLOAD·🇺🇸 United States

Gestartet Apr 26, 2026 von Vandenberg Space Force Base

Loading…

Nächste Überflüge (nächste 24 Stunden)

TLE

AktuellSource: CelesTrak SupGP

Epoche: Sep 15, 2026, 03:15 UTC

1 68856C 26094T   26258.13590278 -.00055720  00000+0 -17305-2 0  2588
2 68856  97.2835 271.3711 0001677  90.0362  61.4187 15.33452318    15

Verfolge STARLINK-37483 in Echtzeit mit AllMySat

Download on the App Store